"read_dt","SO2 (ppb)","flags","PMT voltage (V)","lamp voltage (V)","lamp intensity (Hz)","internal temp (C)","react chamber temp (C)","sample flow (l/min)","pres (mmHg)","SO2 bkg (ppb)","SO2 coefficient"
2015-03-18 00:00:00,1827E-3,5C000000,-0724,0835,12121,026.8,045.4,0.470,719.2,01.20,0.508
2015-03-18 00:01:00,1630E-3,5C000000,-0724,0836,12111,026.8,045.4,0.471,719.3,01.20,0.508
2015-03-18 00:02:00,1874E-3,5C000000,-0724,0835,12151,026.7,045.4,0.471,719.3,01.20,0.508
2015-03-18 00:03:00,1747E-3,5C000000,-0724,0835,12084,026.7,045.4,0.471,719.2,01.20,0.508
2015-03-18 00:04:00,1975E-3,5C000000,-0724,0836,12174,026.7,045.4,0.470,719.3,01.20,0.508
2015-03-18 00:05:00,1840E-3,5C000000,-0724,0836,12100,026.7,045.4,0.470,719.3,01.20,0.508
2015-03-18 00:06:00,1725E-3,5C000000,-0724,0836,12283,026.7,045.4,0.471,719.3,01.20,0.508
2015-03-18 00:07:00,1889E-3,5C000000,-0724,0834,11904,026.7,045.4,0.471,719.2,01.20,0.508
2015-03-18 00:08:00,1805E-3,5C000000,-0724,0835,12207,026.7,045.4,0.471,719.2,01.20,0.508
2015-03-18 00:09:00,1854E-3,5C000000,-0724,0836,12010,026.8,045.4,0.470,719.2,01.20,0.508
2015-03-18 00:10:00,1860E-3,5C000000,-0724,0836,12153,026.7,045.4,0.471,719.2,01.20,0.508
2015-03-18 00:11:00,1932E-3,5C000000,-0724,0836,12124,026.8,045.4,0.471,719.2,01.20,0.508
2015-03-18 00:12:00,1793E-3,5C000000,-0724,0836,12159,026.8,045.4,0.470,719.2,01.20,0.508
2015-03-18 00:13:00,1927E-3,5C000000,-0724,0835,12044,026.8,045.4,0.470,719.2,01.20,0.508
2015-03-18 00:14:00,1744E-3,5C000000,-0724,0836,12120,026.8,045.4,0.471,719.2,01.20,0.508
2015-03-18 00:15:00,1738E-3,5C000000,-0724,0836,12189,026.9,045.4,0.471,719.2,01.20,0.508
2015-03-18 00:16:00,1702E-3,5C000000,-0724,0836,12170,026.9,045.4,0.470,719.2,01.20,0.508
2015-03-18 00:17:00,1803E-3,5C000000,-0724,0835,12089,026.9,045.4,0.471,719.2,01.20,0.508
2015-03-18 00:18:00,1795E-3,5C000000,-0724,0835,12271,026.9,045.4,0.471,719.2,01.20,0.508
2015-03-18 00:19:00,1835E-3,5C000000,-0724,0836,12245,026.9,045.4,0.470,719.2,01.20,0.508
2015-03-18 00:20:00,1858E-3,5C000000,-0724,0835,12155,026.9,045.4,0.470,719.2,01.20,0.508
2015-03-18 00:21:00,1816E-3,5C000000,-0724,0836,12116,026.9,045.4,0.471,719.2,01.20,0.508
2015-03-18 00:22:00,1873E-3,5C000000,-0724,0835,11998,026.9,045.4,0.470,719.2,01.20,0.508
2015-03-18 00:23:00,1688E-3,5C000000,-0724,0836,12322,026.9,045.4,0.470,719.2,01.20,0.508
2015-03-18 00:24:00,1809E-3,5C000000,-0724,0835,12034,026.9,045.4,0.470,719.2,01.20,0.508
2015-03-18 00:25:00,1912E-3,5C000000,-0724,0835,12125,026.9,045.4,0.471,719.2,01.20,0.508
2015-03-18 00:26:00,1846E-3,5C000000,-0724,0836,12068,026.9,045.4,0.470,719.2,01.20,0.508
2015-03-18 00:27:00,1809E-3,5C000000,-0724,0835,12273,026.9,045.4,0.470,719.1,01.20,0.508
2015-03-18 00:28:00,1802E-3,5C000000,-0724,0835,12223,026.9,045.4,0.471,719.1,01.20,0.508
2015-03-18 00:29:00,1771E-3,5C000000,-0724,0836,12269,026.9,045.4,0.470,719.1,01.20,0.508
2015-03-18 00:30:00,1811E-3,5C000000,-0724,0836,12146,026.9,045.4,0.470,719.1,01.20,0.508
2015-03-18 00:31:00,1743E-3,5C000000,-0724,0835,12234,026.9,045.4,0.470,719.1,01.20,0.508
2015-03-18 00:32:00,1720E-3,5C000000,-0724,0835,12134,026.9,045.4,0.471,719.1,01.20,0.508
2015-03-18 00:33:00,1943E-3,5C000000,-0724,0835,12164,026.8,045.4,0.470,719.1,01.20,0.508
2015-03-18 00:34:00,1787E-3,5C000000,-0724,0834,12265,026.8,045.4,0.470,719.1,01.20,0.508
2015-03-18 00:35:00,1835E-3,5C000000,-0724,0835,12067,026.8,045.4,0.470,719.1,01.20,0.508
2015-03-18 00:36:00,1771E-3,5C000000,-0724,0835,12110,026.8,045.4,0.471,719.1,01.20,0.508
2015-03-18 00:37:00,1965E-3,5C000000,-0724,0835,12233,026.8,045.4,0.471,719.1,01.20,0.508
2015-03-18 00:38:00,1734E-3,5C000000,-0724,0835,12179,026.9,045.4,0.470,719.1,01.20,0.508
2015-03-18 00:39:00,1769E-3,5C000000,-0724,0834,12135,026.8,045.4,0.470,719.1,01.20,0.508
2015-03-18 00:40:00,1741E-3,5C000000,-0724,0835,12245,026.9,045.4,0.471,719.1,01.20,0.508
2015-03-18 00:41:00,1828E-3,5C000000,-0724,0836,12308,026.8,045.4,0.470,719.1,01.20,0.508
2015-03-18 00:42:00,1849E-3,5C000000,-0724,0835,12205,026.8,045.4,0.470,719.1,01.20,0.508
2015-03-18 00:43:00,1797E-3,5C000000,-0724,0835,12071,026.9,045.4,0.470,719.1,01.20,0.508
2015-03-18 00:44:00,1885E-3,5C000000,-0724,0836,12310,026.9,045.4,0.471,719.1,01.20,0.508
2015-03-18 00:45:00,1796E-3,5C000000,-0724,0835,12104,026.8,045.4,0.470,719.1,01.20,0.508
2015-03-18 00:46:00,1762E-3,5C000000,-0724,0836,12141,026.8,045.4,0.470,719.1,01.20,0.508
2015-03-18 00:47:00,1742E-3,5C000000,-0724,0835,12118,026.9,045.4,0.471,719.1,01.20,0.508
2015-03-18 00:48:00,1792E-3,5C000000,-0724,0835,12183,026.9,045.4,0.471,719.1,01.20,0.508
2015-03-18 00:49:00,1821E-3,5C000000,-0724,0835,12215,026.9,045.4,0.470,719.1,01.20,0.508
2015-03-18 00:50:00,1955E-3,5C000000,-0724,0834,12074,026.9,045.4,0.471,719.1,01.20,0.508
2015-03-18 00:51:00,1871E-3,5C000000,-0724,0835,12208,026.9,045.4,0.470,719.1,01.20,0.508
2015-03-18 00:52:00,1821E-3,5C000000,-0724,0835,12128,027.0,045.4,0.470,719.1,01.20,0.508
2015-03-18 00:53:00,1788E-3,5C000000,-0724,0836,11917,027.1,045.4,0.470,719.1,01.20,0.508
2015-03-18 00:54:00,1929E-3,5C000000,-0724,0836,12156,027.1,045.4,0.470,719.1,01.20,0.508
2015-03-18 00:55:00,1869E-3,5C000000,-0724,0835,12135,027.2,045.4,0.470,719.1,01.20,0.508
2015-03-18 00:56:00,1851E-3,5C000000,-0724,0836,12205,027.3,045.4,0.471,719.0,01.20,0.508
2015-03-18 00:57:00,1822E-3,5C000000,-0724,0836,12151,027.4,045.4,0.470,719.0,01.20,0.508
2015-03-18 00:58:00,1774E-3,5C000000,-0724,0836,12069,027.0,045.4,0.471,719.1,01.20,0.508
2015-03-18 00:59:00,1715E-3,5C000000,-0724,0835,12206,026.8,045.4,0.470,719.1,01.20,0.508
2015-03-18 01:00:00,1905E-3,5C000000,-0724,0836,12065,026.6,045.4,0.471,719.1,01.20,0.508
2015-03-18 01:01:00,1799E-3,5C000000,-0724,0834,12064,026.5,045.4,0.471,719.1,01.20,0.508
2015-03-18 01:02:00,1845E-3,5C000000,-0724,0835,12171,026.4,045.4,0.471,719.1,01.20,0.508
2015-03-18 01:03:00,1862E-3,5C000000,-0724,0836,12167,026.3,045.4,0.472,719.1,01.20,0.508
2015-03-18 01:04:00,1670E-3,5C000000,-0724,0835,12092,026.2,045.4,0.471,719.1,01.20,0.508
2015-03-18 01:05:00,1887E-3,5C000000,-0724,0834,12124,026.0,045.4,0.472,719.1,01.20,0.508
2015-03-18 01:06:00,1797E-3,5C000000,-0724,0835,12174,025.9,045.4,0.472,719.1,01.20,0.508
2015-03-18 01:07:00,1925E-3,5C000000,-0724,0835,12209,025.9,045.4,0.472,719.0,01.20,0.508
2015-03-18 01:08:00,1790E-3,5C000000,-0724,0834,12069,025.7,045.4,0.472,719.0,01.20,0.508
2015-03-18 01:09:00,1812E-3,5C000000,-0724,0835,12129,025.6,045.4,0.473,719.1,01.20,0.508
2015-03-18 01:10:00,1740E-3,5C000000,-0724,0836,12237,025.4,045.3,0.473,719.0,01.20,0.508
2015-03-18 01:11:00,1910E-3,5C000000,-0724,0835,12141,025.3,045.3,0.473,719.0,01.20,0.508
2015-03-18 01:12:00,1827E-3,5C000000,-0724,0835,12105,025.2,045.3,0.473,719.0,01.20,0.508
2015-03-18 01:13:00,1814E-3,5C000000,-0724,0835,12060,025.3,045.3,0.473,719.0,01.20,0.508
2015-03-18 01:14:00,1790E-3,5C000000,-0724,0835,12222,025.4,045.3,0.473,719.0,01.20,0.508
2015-03-18 01:15:00,1875E-3,5C000000,-0724,0835,12049,025.4,045.4,0.473,719.0,01.20,0.508
2015-03-18 01:16:00,1962E-3,5C000000,-0724,0835,12083,025.4,045.4,0.473,719.0,01.20,0.508
2015-03-18 01:17:00,1824E-3,5C000000,-0724,0834,12223,025.4,045.3,0.473,718.9,01.20,0.508
2015-03-18 01:18:00,1760E-3,5C000000,-0724,0835,12152,025.4,045.3,0.473,719.0,01.20,0.508
2015-03-18 01:19:00,1854E-3,5C000000,-0724,0835,12213,025.4,045.4,0.474,719.0,01.20,0.508
2015-03-18 01:20:00,1827E-3,5C000000,-0724,0836,12183,025.4,045.4,0.474,719.0,01.20,0.508
2015-03-18 01:21:00,1856E-3,5C000000,-0724,0835,12181,025.4,045.3,0.474,718.9,01.20,0.508
2015-03-18 01:22:00,1809E-3,5C000000,-0724,0835,12127,025.4,045.3,0.473,718.9,01.20,0.508
2015-03-18 01:23:00,1893E-3,5C000000,-0724,0834,12245,025.4,045.3,0.474,719.0,01.20,0.508
2015-03-18 01:24:00,1884E-3,5C000000,-0724,0835,12176,025.4,045.4,0.474,719.0,01.20,0.508
2015-03-18 01:25:00,1830E-3,5C000000,-0724,0835,12105,025.4,045.3,0.473,719.0,01.20,0.508
2015-03-18 01:26:00,1915E-3,5C000000,-0724,0835,12247,025.4,045.4,0.473,719.0,01.20,0.508
2015-03-18 01:27:00,1770E-3,5C000000,-0724,0835,12205,025.4,045.3,0.474,719.0,01.20,0.508
2015-03-18 01:28:00,1930E-3,5C000000,-0724,0836,12201,025.4,045.3,0.473,719.0,01.20,0.508
2015-03-18 01:29:00,1916E-3,5C000000,-0724,0836,12094,025.4,045.4,0.473,719.0,01.20,0.508
2015-03-18 01:30:00,1752E-3,5C000000,-0724,0834,12179,025.4,045.4,0.474,719.0,01.20,0.508
2015-03-18 01:31:00,1777E-3,5C000000,-0724,0835,12165,025.3,045.4,0.473,719.0,01.20,0.508
2015-03-18 01:32:00,1881E-3,5C000000,-0724,0834,12074,025.5,045.3,0.473,719.1,01.20,0.508
2015-03-18 01:33:00,1838E-3,5C000000,-0724,0835,12098,025.7,045.3,0.474,719.0,01.20,0.508
2015-03-18 01:34:00,1851E-3,5C000000,-0724,0835,12176,025.9,045.4,0.473,719.0,01.20,0.508
2015-03-18 01:35:00,1759E-3,5C000000,-0724,0835,12026,026.1,045.4,0.473,719.0,01.20,0.508
2015-03-18 01:36:00,1677E-3,5C000000,-0724,0835,12204,026.3,045.4,0.473,718.9,01.20,0.508
2015-03-18 01:37:00,1971E-3,5C000000,-0724,0835,12307,026.5,045.4,0.472,719.0,01.20,0.508
2015-03-18 01:38:00,1855E-3,5C000000,-0724,0835,12256,026.6,045.4,0.472,719.0,01.20,0.508
2015-03-18 01:39:00,1848E-3,5C000000,-0724,0836,12077,026.9,045.4,0.472,719.0,01.20,0.508
2015-03-18 01:40:00,1805E-3,5C000000,-0724,0836,12121,027.0,045.4,0.471,719.0,01.20,0.508
2015-03-18 01:41:00,1932E-3,5C000000,-0724,0836,12124,027.2,045.4,0.471,719.0,01.20,0.508
2015-03-18 01:42:00,1681E-3,5C000000,-0724,0836,12174,027.3,045.4,0.471,719.0,01.20,0.508
2015-03-18 01:43:00,1824E-3,5C000000,-0724,0836,12154,027.5,045.4,0.470,719.0,01.20,0.508
2015-03-18 01:44:00,1790E-3,5C000000,-0724,0834,12175,027.7,045.4,0.470,718.9,01.20,0.508
2015-03-18 01:45:00,1812E-3,5C000000,-0724,0835,12098,027.8,045.4,0.469,718.9,01.20,0.508
2015-03-18 01:46:00,1734E-3,5C000000,-0724,0835,12193,028.0,045.4,0.469,718.9,01.20,0.508
2015-03-18 01:47:00,1862E-3,5C000000,-0724,0836,12292,028.1,045.4,0.469,719.0,01.20,0.508
2015-03-18 01:48:00,1859E-3,5C000000,-0724,0836,12265,028.3,045.4,0.469,718.9,01.20,0.508
2015-03-18 01:49:00,1711E-3,5C000000,-0724,0836,12085,028.4,045.4,0.468,719.0,01.20,0.508
2015-03-18 01:50:00,1711E-3,5C000000,-0724,0836,12256,028.5,045.4,0.468,718.9,01.20,0.508
2015-03-18 01:51:00,1725E-3,5C000000,-0724,0835,12126,028.6,045.4,0.468,719.0,01.20,0.508
2015-03-18 01:52:00,1818E-3,5C000000,-0724,0836,12242,028.7,045.4,0.468,718.9,01.20,0.508
2015-03-18 01:53:00,1903E-3,5C000000,-0724,0835,12141,028.7,045.5,0.468,718.9,01.20,0.508
2015-03-18 01:54:00,1747E-3,5C000000,-0724,0835,12021,028.7,045.4,0.468,718.9,01.20,0.508
2015-03-18 01:55:00,1831E-3,5C000000,-0724,0836,12192,028.7,045.4,0.468,718.9,01.20,0.508
2015-03-18 01:56:00,1921E-3,5C000000,-0724,0836,12166,028.7,045.4,0.467,718.9,01.20,0.508
2015-03-18 01:57:00,1919E-3,5C000000,-0724,0836,12091,028.6,045.4,0.468,718.9,01.20,0.508
2015-03-18 01:58:00,1824E-3,5C000000,-0724,0836,12111,028.6,045.5,0.468,718.9,01.20,0.508
2015-03-18 01:59:00,1784E-3,5C000000,-0724,0835,12062,028.5,045.5,0.468,718.9,01.20,0.508
2015-03-18 02:00:00,1900E-3,5C000000,-0724,0836,12239,028.5,045.5,0.468,718.9,01.20,0.508
2015-03-18 02:01:00,1852E-3,5C000000,-0724,0835,12195,028.3,045.4,0.468,718.9,01.20,0.508
2015-03-18 02:02:00,1592E-3,5C000000,-0724,0837,12196,028.3,045.4,0.468,718.9,01.20,0.508
2015-03-18 02:03:00,1782E-3,5C000000,-0724,0835,12134,028.1,045.4,0.468,718.9,01.20,0.508
2015-03-18 02:04:00,1764E-3,5C000000,-0724,0836,12148,028.0,045.4,0.468,718.9,01.20,0.508
2015-03-18 02:05:00,1839E-3,5C000000,-0724,0836,12189,027.8,045.4,0.469,718.9,01.20,0.508
2015-03-18 02:06:00,1851E-3,5C000000,-0724,0835,12100,027.7,045.4,0.468,718.9,01.20,0.508
2015-03-18 02:07:00,1843E-3,5C000000,-0724,0835,12061,027.5,045.4,0.469,718.9,01.20,0.508
2015-03-18 02:08:00,1876E-3,5C000000,-0724,0835,12069,027.4,045.4,0.469,718.9,01.20,0.508
2015-03-18 02:09:00,1664E-3,5C000000,-0724,0835,12068,027.3,045.4,0.469,718.9,01.20,0.508
2015-03-18 02:10:00,1796E-3,5C000000,-0724,0836,12332,027.2,045.4,0.470,718.9,01.20,0.508
2015-03-18 02:11:00,1685E-3,5C000000,-0724,0836,12273,027.0,045.4,0.469,718.9,01.20,0.508
2015-03-18 02:12:00,1812E-3,5C000000,-0724,0835,12108,027.0,045.4,0.469,718.9,01.20,0.508
2015-03-18 02:13:00,1899E-3,5C000000,-0724,0835,12142,026.9,045.4,0.470,718.9,01.20,0.508
2015-03-18 02:14:00,1923E-3,5C000000,-0724,0834,12142,026.8,045.4,0.470,718.9,01.20,0.508
2015-03-18 02:15:00,1822E-3,5C000000,-0724,0835,12183,026.7,045.4,0.470,718.9,01.20,0.508
2015-03-18 02:16:00,1882E-3,5C000000,-0724,0834,12037,026.6,045.4,0.470,718.9,01.20,0.508
2015-03-18 02:17:00,1800E-3,5C000000,-0724,0834,12108,026.5,045.4,0.470,718.9,01.20,0.508
2015-03-18 02:18:00,1769E-3,5C000000,-0724,0834,12279,026.5,045.4,0.470,718.9,01.20,0.508
2015-03-18 02:19:00,1745E-3,5C000000,-0724,0835,12068,026.4,045.4,0.471,718.9,01.20,0.508
2015-03-18 02:20:00,1974E-3,5C000000,-0724,0835,12132,026.3,045.4,0.471,718.9,01.20,0.508
2015-03-18 02:21:00,1877E-3,5C000000,-0724,0834,12156,026.3,045.4,0.471,718.9,01.20,0.508
2015-03-18 02:22:00,1890E-3,5C000000,-0724,0835,12136,026.2,045.4,0.471,718.9,01.20,0.508
2015-03-18 02:23:00,1863E-3,5C000000,-0724,0835,12125,026.1,045.4,0.471,718.9,01.20,0.508
2015-03-18 02:24:00,1762E-3,5C000000,-0724,0834,12332,026.1,045.4,0.471,718.9,01.20,0.508
2015-03-18 02:25:00,1954E-3,5C000000,-0724,0835,12242,026.0,045.4,0.472,718.9,01.20,0.508
2015-03-18 02:26:00,1859E-3,5C000000,-0724,0836,12214,026.0,045.4,0.472,718.9,01.20,0.508
2015-03-18 02:27:00,1977E-3,5C000000,-0724,0834,12115,025.9,045.4,0.472,718.9,01.20,0.508
2015-03-18 02:28:00,1771E-3,5C000000,-0724,0835,12005,025.9,045.4,0.472,719.0,01.20,0.508
2015-03-18 02:29:00,1675E-3,5C000000,-0724,0836,12145,025.8,045.4,0.472,719.0,01.20,0.508
2015-03-18 02:30:00,1785E-3,5C000000,-0724,0836,12159,025.8,045.4,0.472,718.9,01.20,0.508
2015-03-18 02:31:00,1949E-3,5C000000,-0724,0835,12186,025.8,045.4,0.472,719.0,01.20,0.508
2015-03-18 02:32:00,1745E-3,5C000000,-0724,0834,12208,025.8,045.4,0.471,719.0,01.20,0.508
2015-03-18 02:33:00,1857E-3,5C000000,-0724,0835,12302,025.7,045.4,0.471,719.0,01.20,0.508
2015-03-18 02:34:00,1765E-3,5C000000,-0724,0835,12099,025.6,045.4,0.471,719.0,01.20,0.508
2015-03-18 02:35:00,1920E-3,5C000000,-0724,0834,12174,025.6,045.4,0.472,718.9,01.20,0.508
2015-03-18 02:36:00,1884E-3,5C000000,-0724,0835,12124,025.6,045.4,0.472,718.9,01.20,0.508
2015-03-18 02:37:00,1871E-3,5C000000,-0724,0835,12139,025.6,045.4,0.472,718.9,01.20,0.508
2015-03-18 02:38:00,1913E-3,5C000000,-0724,0835,12240,025.6,045.4,0.472,718.9,01.20,0.508
2015-03-18 02:39:00,1850E-3,5C000000,-0724,0835,12129,025.5,045.4,0.472,718.9,01.20,0.508
2015-03-18 02:40:00,1739E-3,5C000000,-0724,0835,12286,025.5,045.4,0.472,718.9,01.20,0.508
2015-03-18 02:41:00,1854E-3,5C000000,-0724,0835,12269,025.5,045.4,0.472,719.0,01.20,0.508
2015-03-18 02:42:00,1751E-3,5C000000,-0724,0835,12033,025.4,045.4,0.472,718.9,01.20,0.508
2015-03-18 02:43:00,1846E-3,5C000000,-0724,0835,12180,025.4,045.4,0.472,718.9,01.20,0.508
2015-03-18 02:44:00,1751E-3,5C000000,-0724,0835,12057,025.4,045.4,0.472,719.0,01.20,0.508
2015-03-18 02:45:00,1831E-3,5C000000,-0724,0835,12069,025.4,045.4,0.472,719.0,01.20,0.508
2015-03-18 02:46:00,1865E-3,5C000000,-0724,0834,12294,025.3,045.3,0.472,719.0,01.20,0.508
2015-03-18 02:47:00,1882E-3,5C000000,-0724,0835,12126,025.3,045.4,0.472,719.0,01.20,0.508
2015-03-18 02:48:00,1811E-3,5C000000,-0724,0835,12103,025.3,045.4,0.472,719.0,01.20,0.508
2015-03-18 02:49:00,1770E-3,5C000000,-0724,0835,11881,025.3,045.4,0.472,718.9,01.20,0.508
2015-03-18 02:50:00,1868E-3,5C000000,-0724,0835,12256,025.3,045.4,0.472,718.9,01.20,0.508
2015-03-18 02:51:00,1716E-3,5C000000,-0724,0835,12199,025.3,045.3,0.472,719.0,01.20,0.508
2015-03-18 02:52:00,1851E-3,5C000000,-0724,0834,12174,025.3,045.3,0.472,719.0,01.20,0.508
2015-03-18 02:53:00,1991E-3,5C000000,-0724,0835,11949,025.2,045.3,0.473,719.0,01.20,0.508
2015-03-18 02:54:00,1892E-3,5C000000,-0724,0835,12248,025.3,045.3,0.472,719.0,01.20,0.508
2015-03-18 02:55:00,1854E-3,5C000000,-0724,0834,12110,025.3,045.3,0.472,719.0,01.20,0.508
2015-03-18 02:56:00,1716E-3,5C000000,-0724,0835,12248,025.2,045.4,0.472,719.0,01.20,0.508
2015-03-18 02:57:00,1918E-3,5C000000,-0724,0835,12308,025.2,045.4,0.472,719.0,01.20,0.508
2015-03-18 02:58:00,1859E-3,5C000000,-0724,0834,12107,025.2,045.4,0.473,719.0,01.20,0.508
2015-03-18 02:59:00,1842E-3,5C000000,-0724,0835,12151,025.2,045.4,0.473,719.0,01.20,0.508
2015-03-18 03:00:00,1864E-3,5C000000,-0724,0835,12212,025.2,045.4,0.472,719.0,01.20,0.508
2015-03-18 03:01:00,1947E-3,5C000000,-0724,0835,12252,025.2,045.4,0.472,719.0,01.20,0.508
2015-03-18 03:02:00,1774E-3,5C000000,-0724,0835,12111,025.2,045.4,0.472,719.0,01.20,0.508
2015-03-18 03:03:00,1802E-3,5C000000,-0724,0835,12238,025.2,045.3,0.473,719.0,01.20,0.508
2015-03-18 03:04:00,1727E-3,5C000000,-0724,0834,12042,025.2,045.4,0.473,719.0,01.20,0.508
2015-03-18 03:05:00,1880E-3,5C000000,-0724,0835,12307,025.2,045.4,0.472,719.0,01.20,0.508
2015-03-18 03:06:00,1851E-3,5C000000,-0724,0834,12128,025.2,045.3,0.472,719.0,01.20,0.508
2015-03-18 03:07:00,1952E-3,5C000000,-0724,0834,11962,025.1,045.4,0.472,719.0,01.20,0.508
2015-03-18 03:08:00,1728E-3,5C000000,-0724,0834,12329,025.2,045.4,0.473,719.0,01.20,0.508
2015-03-18 03:09:00,1754E-3,5C000000,-0724,0834,12139,025.1,045.4,0.473,719.0,01.20,0.508
2015-03-18 03:10:00,1772E-3,5C000000,-0724,0835,12297,025.1,045.4,0.473,719.0,01.20,0.508
2015-03-18 03:11:00,1799E-3,5C000000,-0724,0834,12064,025.1,045.4,0.472,719.1,01.20,0.508
2015-03-18 03:12:00,1794E-3,5C000000,-0724,0834,12175,025.1,045.4,0.472,719.1,01.20,0.508
2015-03-18 03:13:00,1898E-3,5C000000,-0724,0835,12056,025.1,045.3,0.473,719.1,01.20,0.508
2015-03-18 03:14:00,1676E-3,5C000000,-0724,0834,12133,025.1,045.4,0.473,719.1,01.20,0.508
2015-03-18 03:15:00,1738E-3,5C000000,-0724,0833,12033,025.1,045.4,0.473,719.0,01.20,0.508
2015-03-18 03:16:00,1790E-3,5C000000,-0724,0834,12085,025.1,045.4,0.472,719.0,01.20,0.508
2015-03-18 03:17:00,1803E-3,5C000000,-0724,0835,12281,025.1,045.3,0.472,719.1,01.20,0.508
2015-03-18 03:18:00,1775E-3,5C000000,-0724,0834,12115,025.1,045.4,0.473,719.1,01.20,0.508
2015-03-18 03:19:00,1882E-3,5C000000,-0724,0835,12245,025.1,045.4,0.473,719.1,01.20,0.508
2015-03-18 03:20:00,1776E-3,5C000000,-0724,0835,12135,025.1,045.3,0.473,719.1,01.20,0.508
2015-03-18 03:21:00,1844E-3,5C000000,-0724,0835,12122,025.1,045.3,0.472,719.0,01.20,0.508
2015-03-18 03:22:00,1689E-3,5C000000,-0724,0834,11993,025.1,045.4,0.472,719.0,01.20,0.508
2015-03-18 03:23:00,1893E-3,5C000000,-0724,0834,12239,025.1,045.4,0.473,719.0,01.20,0.508
2015-03-18 03:24:00,1902E-3,5C000000,-0724,0834,12232,025.1,045.3,0.473,719.0,01.20,0.508
2015-03-18 03:25:00,1870E-3,5C000000,-0724,0835,12134,025.1,045.4,0.473,719.1,01.20,0.508
2015-03-18 03:26:00,1760E-3,5C000000,-0724,0836,12075,025.1,045.4,0.472,719.0,01.20,0.508
2015-03-18 03:27:00,1851E-3,5C000000,-0724,0835,12150,025.1,045.4,0.472,719.0,01.20,0.508
2015-03-18 03:28:00,1845E-3,5C000000,-0724,0835,12229,025.1,045.3,0.473,719.0,01.20,0.508
2015-03-18 03:29:00,1859E-3,5C000000,-0724,0835,12054,025.1,045.4,0.473,719.0,01.20,0.508
2015-03-18 03:30:00,1770E-3,5C000000,-0724,0834,12216,025.1,045.3,0.473,719.0,01.20,0.508
2015-03-18 03:31:00,1793E-3,5C000000,-0724,0835,12112,025.1,045.4,0.472,719.0,01.20,0.508
2015-03-18 03:32:00,1697E-3,5C000000,-0724,0834,12077,025.1,045.4,0.472,719.0,01.20,0.508
2015-03-18 03:33:00,1884E-3,5C000000,-0724,0835,12157,025.1,045.4,0.473,719.0,01.20,0.508
2015-03-18 03:34:00,1777E-3,5C000000,-0724,0834,11969,025.1,045.4,0.473,719.0,01.20,0.508
2015-03-18 03:35:00,1850E-3,5C000000,-0724,0834,12041,025.1,045.4,0.472,719.0,01.20,0.508
2015-03-18 03:36:00,1719E-3,5C000000,-0724,0835,12069,025.1,045.4,0.472,719.0,01.20,0.508
2015-03-18 03:37:00,1831E-3,5C000000,-0724,0835,12183,025.1,045.4,0.473,719.0,01.20,0.508
2015-03-18 03:38:00,1837E-3,5C000000,-0724,0835,12183,025.1,045.3,0.473,719.0,01.20,0.508
2015-03-18 03:39:00,1821E-3,5C000000,-0724,0835,12335,025.1,045.3,0.472,719.1,01.20,0.508
2015-03-18 03:40:00,1809E-3,5C000000,-0724,0834,12216,025.1,045.3,0.472,719.1,01.20,0.508
2015-03-18 03:41:00,1710E-3,5C000000,-0724,0834,12153,025.1,045.4,0.473,719.0,01.20,0.508
2015-03-18 03:42:00,1849E-3,5C000000,-0724,0833,12098,025.1,045.4,0.473,719.0,01.20,0.508
2015-03-18 03:43:00,1843E-3,5C000000,-0724,0835,12097,025.1,045.4,0.472,719.0,01.20,0.508
2015-03-18 03:44:00,1889E-3,5C000000,-0724,0835,12280,025.1,045.3,0.472,719.0,01.20,0.508
2015-03-18 03:45:00,1775E-3,5C000000,-0724,0834,12232,025.1,045.4,0.472,719.0,01.20,0.508
2015-03-18 03:46:00,1728E-3,5C000000,-0724,0835,12190,025.1,045.4,0.473,719.0,01.20,0.508
2015-03-18 03:47:00,1700E-3,5C000000,-0724,0835,12114,025.1,045.4,0.473,719.0,01.20,0.508
2015-03-18 03:48:00,1894E-3,5C000000,-0724,0834,12147,025.1,045.4,0.472,719.0,01.20,0.508
2015-03-18 03:49:00,1878E-3,5C000000,-0724,0835,12208,025.1,045.4,0.472,719.0,01.20,0.508
2015-03-18 03:50:00,1865E-3,5C000000,-0724,0834,12167,025.1,045.4,0.473,719.0,01.20,0.508
2015-03-18 03:51:00,1768E-3,5C000000,-0724,0835,12211,025.1,045.4,0.473,719.0,01.20,0.508
2015-03-18 03:52:00,1773E-3,5C000000,-0724,0834,12153,025.1,045.4,0.472,719.0,01.20,0.508
2015-03-18 03:53:00,1739E-3,5C000000,-0724,0835,12190,025.1,045.4,0.472,719.0,01.20,0.508
2015-03-18 03:54:00,1860E-3,5C000000,-0724,0835,12069,025.1,045.3,0.473,719.0,01.20,0.508
2015-03-18 03:55:00,1856E-3,5C000000,-0724,0834,12104,025.1,045.4,0.473,719.0,01.20,0.508
2015-03-18 03:56:00,1812E-3,5C000000,-0724,0836,12257,025.1,045.3,0.472,719.0,01.20,0.508
2015-03-18 03:57:00,1820E-3,5C000000,-0724,0835,11999,025.1,045.4,0.472,719.0,01.20,0.508
2015-03-18 03:58:00,1946E-3,5C000000,-0724,0835,12196,025.1,045.4,0.473,719.0,01.20,0.508
2015-03-18 03:59:00,1893E-3,5C000000,-0724,0834,12241,025.1,045.4,0.473,718.9,01.20,0.508
2015-03-18 04:00:00,1715E-3,5C000000,-0724,0834,12118,025.1,045.4,0.472,719.0,01.20,0.508
2015-03-18 04:01:00,1801E-3,5C000000,-0724,0835,11956,025.1,045.3,0.472,718.9,01.20,0.508
2015-03-18 04:02:00,1668E-3,5C000000,-0724,0835,12093,025.1,045.3,0.472,718.9,01.20,0.508
2015-03-18 04:03:00,1808E-3,5C000000,-0724,0835,12148,025.1,045.4,0.473,718.9,01.20,0.508
2015-03-18 04:04:00,1796E-3,5C000000,-0724,0835,12048,025.1,045.3,0.472,718.9,01.20,0.508
2015-03-18 04:05:00,1980E-3,5C000000,-0724,0835,12216,025.1,045.4,0.472,718.9,01.20,0.508
2015-03-18 04:06:00,1892E-3,5C000000,-0724,0835,12231,025.2,045.4,0.472,718.9,01.20,0.508
2015-03-18 04:07:00,1835E-3,5C000000,-0724,0835,12167,025.1,045.3,0.473,718.9,01.20,0.508
2015-03-18 04:08:00,1823E-3,5C000000,-0724,0835,12219,025.2,045.3,0.473,718.9,01.20,0.508
2015-03-18 04:09:00,1893E-3,5C000000,-0724,0834,12058,025.1,045.4,0.472,718.9,01.20,0.508
2015-03-18 04:10:00,1720E-3,5C000000,-0724,0835,12013,025.1,045.4,0.472,718.9,01.20,0.508
2015-03-18 04:11:00,1753E-3,5C000000,-0724,0835,12287,025.1,045.4,0.473,718.9,01.20,0.508
2015-03-18 04:12:00,1859E-3,5C000000,-0724,0835,12122,025.2,045.4,0.473,718.9,01.20,0.508
2015-03-18 04:13:00,1830E-3,5C000000,-0724,0835,12160,025.1,045.3,0.472,718.9,01.20,0.508
2015-03-18 04:14:00,1891E-3,5C000000,-0724,0835,12312,025.2,045.4,0.472,718.9,01.20,0.508
2015-03-18 04:15:00,1872E-3,5C000000,-0724,0835,12097,025.2,045.4,0.473,718.9,01.20,0.508
2015-03-18 04:16:00,1732E-3,5C000000,-0724,0836,12106,025.2,045.3,0.473,718.9,01.20,0.508
2015-03-18 04:17:00,1837E-3,5C000000,-0724,0836,12212,025.1,045.3,0.472,718.9,01.20,0.508
2015-03-18 04:18:00,1913E-3,5C000000,-0724,0835,12245,025.2,045.3,0.472,718.9,01.20,0.508
2015-03-18 04:19:00,1937E-3,5C000000,-0724,0835,12072,025.2,045.4,0.473,718.9,01.20,0.508
2015-03-18 04:20:00,1761E-3,5C000000,-0724,0835,12137,025.2,045.4,0.472,718.9,01.20,0.508